This is the latest recevied weather packets stored in our database for station/object KI4BIY. If no packets are shown the sender has not sent any weather packets the latest 10 day(s).
| Time | Temp. | Humidity | Pressure | Rain* | Wind** | Luminosity | Snow |
|---|---|---|---|---|---|---|---|
| 1777650440 | 18.33° C | 59% | 1017.3 hPa | 0 mm | - | 360 W/m² | - |
| 1777650137 | 18.33° C | 61% | 1017.3 hPa | 0 mm | - | 420 W/m² | - |
| 1777649834 | 18.33° C | 58% | 1017.2 hPa | 0 mm | - | 523 W/m² | - |
| 1777649531 | 18.33° C | 63% | 1016.9 hPa | 0 mm | - | 495 W/m² | - |
| 1777649227 | 17.78° C | 62% | 1016.8 hPa | 0 mm | - | 428 W/m² | - |
| 1777648925 | 17.78° C | 60% | 1017.3 hPa | 0 mm | - | 470 W/m² | - |
| 1777648622 | 17.78° C | 61% | 1016.7 hPa | 0 mm | - | 376 W/m² | - |
| 1777648318 | 18.33° C | 63% | 1016.9 hPa | 0 mm | - | 520 W/m² | - |
| 1777648015 | 18.33° C | 65% | 1016.7 hPa | 0 mm | - | 592 W/m² | - |
| 1777647711 | 17.78° C | 59% | 1016.8 hPa | 0 mm | - | 429 W/m² | - |
| 1777647407 | 18.33° C | 61% | 1016.8 hPa | 0 mm | - | 496 W/m² | - |
| 1777647105 | 18.33° C | 62% | 1016.9 hPa | 0 mm | - | 556 W/m² | - |
| 1777646801 | 17.78° C | 60% | 1017.1 hPa | 0 mm | - | 563 W/m² | - |
| 1777646496 | 17.78° C | 57% | 1016.9 hPa | 0 mm | - | 444 W/m² | - |
| 1777646193 | 17.78° C | 60% | 1017.1 hPa | 0 mm | - | 552 W/m² | - |
| 1777645891 | 17.78° C | 63% | 1017.1 hPa | 0 mm | - | 539 W/m² | - |
| 1777645587 | 16.67° C | 69% | 1016.8 hPa | 0 mm | - | 458 W/m² | - |
| 1777645283 | 16.67° C | 71% | 1016.8 hPa | 0 mm | - | 435 W/m² | - |
| 1777644979 | 16.67° C | 70% | 1016.8 hPa | 0 mm | - | 377 W/m² | - |
| 1777644677 | 16.67° C | 66% | 1016.7 hPa | 0 mm | - | 390 W/m² | - |
| 1777644373 | 16.67° C | 67% | 1016.7 hPa | 0 mm | - | 371 W/m² | - |
| 1777644070 | 16.67° C | 70% | 1016.9 hPa | 0 mm | - | 358 W/m² | - |
| 1777643766 | 16.67° C | 73% | 1016.6 hPa | 0 mm | - | 344 W/m² | - |
| 1777643464 | 16.11° C | 75% | 1016.7 hPa | 0 mm | - | 262 W/m² | - |
| 1777643160 | 16.11° C | 70% | 1016.4 hPa | 0 mm | - | 213 W/m² | - |
* Rain latest hour (hover to see other rain measurements)
** Current wind speed in m/s (hover to see current wind gust speed)